Date_Time,Julian_Date,Latitude,Longitude,Instrument_Depth,U,V,Speed,Direction
(yyyy-mm-dd hh:mn:ss UTC),(JD),(+ deg. North),(+ deg. East),(m),(cm/s),(cm/s),(cm/s),(deg True)
1984-08-27 17:30:00 UTC,2445940.229167,28.7317,-95.2428,0201,0.63,17.99,18.0000,2.0000
1984-08-27 18:00:00 UTC,2445940.250000,28.7317,-95.2428,0201,2.09,19.89,20.0000,6.0000
1984-08-27 18:30:00 UTC,2445940.270833,28.7317,-95.2428,0201,3.65,20.68,21.0000,10.0000
1984-08-27 19:00:00 UTC,2445940.291667,28.7317,-95.2428,0201,5.69,21.25,22.0000,15.0000
1984-08-27 19:30:00 UTC,2445940.312500,28.7317,-95.2428,0201,7.49,21.75,23.0000,19.0000
1984-08-27 20:00:00 UTC,2445940.333333,28.7317,-95.2428,0201,7.52,20.67,22.0000,20.0000
1984-08-27 20:30:00 UTC,2445940.354167,28.7317,-95.2428,0201,7.52,20.67,22.0000,20.0000
1984-08-27 21:00:00 UTC,2445940.375000,28.7317,-95.2428,0201,7.18,19.73,21.0000,20.0000
1984-08-27 21:30:00 UTC,2445940.395833,28.7317,-95.2428,0201,7.18,19.73,21.0000,20.0000
1984-08-27 22:00:00 UTC,2445940.416667,28.7317,-95.2428,0201,7.17,18.67,20.0000,21.0000
1984-08-27 22:30:00 UTC,2445940.437500,28.7317,-95.2428,0201,6.74,16.69,18.0000,22.0000
1984-08-27 23:00:00 UTC,2445940.458333,28.7317,-95.2428,0201,6.25,14.73,16.0000,23.0000
1984-08-27 23:30:00 UTC,2445940.479167,28.7317,-95.2428,0201,5.47,12.89,14.0000,23.0000
1984-08-28 00:00:00 UTC,2445940.500000,28.7317,-95.2428,0201,4.30,10.13,11.0000,23.0000
1984-08-28 00:30:00 UTC,2445940.520833,28.7317,-95.2428,0201,3.23,8.40,9.0000,21.0000
1984-08-28 01:00:00 UTC,2445940.541667,28.7317,-95.2428,0201,1.80,7.79,8.0000,13.0000
1984-08-28 01:30:00 UTC,2445940.562500,28.7317,-95.2428,0201,0.56,7.98,8.0000,4.0000
1984-08-28 02:00:00 UTC,2445940.583333,28.7317,-95.2428,0201,-0.28,8.00,8.0000,358.0000
1984-08-28 02:30:00 UTC,2445940.604167,28.7317,-95.2428,0201,-0.47,8.99,9.0000,357.0000
1984-08-28 03:00:00 UTC,2445940.625000,28.7317,-95.2428,0201,-0.19,11.00,11.0000,359.0000
1984-08-28 03:30:00 UTC,2445940.645833,28.7317,-95.2428,0201,0.21,12.00,12.0000,1.0000
1984-08-28 04:00:00 UTC,2445940.666667,28.7317,-95.2428,0201,0.68,12.98,13.0000,3.0000
1984-08-28 04:30:00 UTC,2445940.687500,28.7317,-95.2428,0201,1.71,13.90,14.0000,7.0000
1984-08-28 05:00:00 UTC,2445940.708333,28.7317,-95.2428,0201,2.86,14.72,15.0000,11.0000
1984-08-28 05:30:00 UTC,2445940.729167,28.7317,-95.2428,0201,3.88,14.49,15.0000,15.0000
1984-08-28 06:00:00 UTC,2445940.750000,28.7317,-95.2428,0201,4.88,14.18,15.0000,19.0000
1984-08-28 06:30:00 UTC,2445940.770833,28.7317,-95.2428,0201,5.53,16.07,17.0000,19.0000
1984-08-28 07:00:00 UTC,2445940.791667,28.7317,-95.2428,0201,5.87,18.07,19.0000,18.0000
1984-08-28 07:30:00 UTC,2445940.812500,28.7317,-95.2428,0201,6.19,17.96,19.0000,19.0000
1984-08-28 08:00:00 UTC,2445940.833333,28.7317,-95.2428,0201,7.12,17.62,19.0000,22.0000
1984-08-28 08:30:00 UTC,2445940.854167,28.7317,-95.2428,0201,7.61,16.31,18.0000,25.0000
1984-08-28 09:00:00 UTC,2445940.875000,28.7317,-95.2428,0201,7.45,15.28,17.0000,26.0000
1984-08-28 09:30:00 UTC,2445940.895833,28.7317,-95.2428,0201,7.26,14.26,16.0000,27.0000
1984-08-28 10:00:00 UTC,2445940.916667,28.7317,-95.2428,0201,6.58,13.48,15.0000,26.0000
1984-08-28 10:30:00 UTC,2445940.937500,28.7317,-95.2428,0201,5.29,11.88,13.0000,24.0000
1984-08-28 11:00:00 UTC,2445940.958333,28.7317,-95.2428,0201,3.94,10.27,11.0000,21.0000
1984-08-28 11:30:00 UTC,2445940.979167,28.7317,-95.2428,0201,2.48,8.65,9.0000,16.0000
1984-08-28 12:00:00 UTC,2445941.000000,28.7317,-95.2428,0201,1.41,8.89,9.0000,9.0000
1984-08-28 12:30:00 UTC,2445941.020833,28.7317,-95.2428,0201,0.47,8.99,9.0000,3.0000
1984-08-28 13:00:00 UTC,2445941.041667,28.7317,-95.2428,0201,-0.42,7.99,8.0000,357.0000
1984-08-28 13:30:00 UTC,2445941.062500,28.7317,-95.2428,0201,-1.72,8.83,9.0000,349.0000
1984-08-28 14:00:00 UTC,2445941.083333,28.7317,-95.2428,0201,-2.66,10.67,11.0000,346.0000
1984-08-28 14:30:00 UTC,2445941.104167,28.7317,-95.2428,0201,-2.90,11.64,12.0000,346.0000
1984-08-28 15:00:00 UTC,2445941.125000,28.7317,-95.2428,0201,-3.63,14.55,15.0000,346.0000
1984-08-28 15:30:00 UTC,2445941.145833,28.7317,-95.2428,0201,-2.66,16.79,17.0000,351.0000
1984-08-28 16:00:00 UTC,2445941.166667,28.7317,-95.2428,0201,-0.66,18.99,19.0000,358.0000
1984-08-28 16:30:00 UTC,2445941.187500,28.7317,-95.2428,0201,1.05,19.97,20.0000,3.0000
1984-08-28 17:00:00 UTC,2445941.208333,28.7317,-95.2428,0201,1.10,20.97,21.0000,3.0000
1984-08-28 17:30:00 UTC,2445941.229167,28.7317,-95.2428,0201,0.77,21.99,22.0000,2.0000
1984-08-28 18:00:00 UTC,2445941.250000,28.7317,-95.2428,0201,0.40,23.00,23.0000,1.0000
1984-08-28 18:30:00 UTC,2445941.270833,28.7317,-95.2428,0201,0.00,23.00,23.0000,0.0000
1984-08-28 19:00:00 UTC,2445941.291667,28.7317,-95.2428,0201,1.26,23.97,24.0000,3.0000
1984-08-28 19:30:00 UTC,2445941.312500,28.7317,-95.2428,0201,4.51,25.60,26.0000,10.0000
1984-08-28 20:00:00 UTC,2445941.333333,28.7317,-95.2428,0201,6.73,25.11,26.0000,15.0000
1984-08-28 20:30:00 UTC,2445941.354167,28.7317,-95.2428,0201,6.34,22.11,23.0000,16.0000
1984-08-28 21:00:00 UTC,2445941.375000,28.7317,-95.2428,0201,4.60,18.44,19.0000,14.0000
1984-08-28 21:30:00 UTC,2445941.395833,28.7317,-95.2428,0201,4.40,16.42,17.0000,15.0000
1984-08-28 22:00:00 UTC,2445941.416667,28.7317,-95.2428,0201,4.97,16.26,17.0000,17.0000
1984-08-28 22:30:00 UTC,2445941.437500,28.7317,-95.2428,0201,5.47,15.04,16.0000,20.0000
1984-08-28 23:00:00 UTC,2445941.458333,28.7317,-95.2428,0201,4.79,13.16,14.0000,20.0000
1984-08-28 23:30:00 UTC,2445941.479167,28.7317,-95.2428,0201,3.80,12.43,13.0000,17.0000
1984-08-29 00:00:00 UTC,2445941.500000,28.7317,-95.2428,0201,2.90,11.64,12.0000,14.0000
1984-08-29 00:30:00 UTC,2445941.520833,28.7317,-95.2428,0201,3.03,10.57,11.0000,16.0000
1984-08-29 01:00:00 UTC,2445941.541667,28.7317,-95.2428,0201,3.58,10.40,11.0000,19.0000
1984-08-29 01:30:00 UTC,2445941.562500,28.7317,-95.2428,0201,3.22,10.52,11.0000,17.0000
1984-08-29 02:00:00 UTC,2445941.583333,28.7317,-95.2428,0201,2.47,10.72,11.0000,13.0000
1984-08-29 02:30:00 UTC,2445941.604167,28.7317,-95.2428,0201,2.08,11.82,12.0000,10.0000
1984-08-29 03:00:00 UTC,2445941.625000,28.7317,-95.2428,0201,1.81,12.87,13.0000,8.0000
1984-08-29 03:30:00 UTC,2445941.645833,28.7317,-95.2428,0201,2.19,13.83,14.0000,9.0000
1984-08-29 04:00:00 UTC,2445941.666667,28.7317,-95.2428,0201,3.15,13.64,14.0000,13.0000
1984-08-29 04:30:00 UTC,2445941.687500,28.7317,-95.2428,0201,3.62,13.52,14.0000,15.0000
1984-08-29 05:00:00 UTC,2445941.708333,28.7317,-95.2428,0201,3.60,15.59,16.0000,13.0000
1984-08-29 05:30:00 UTC,2445941.729167,28.7317,-95.2428,0201,3.24,16.69,17.0000,11.0000
1984-08-29 06:00:00 UTC,2445941.750000,28.7317,-95.2428,0201,3.53,16.63,17.0000,12.0000
1984-08-29 06:30:00 UTC,2445941.770833,28.7317,-95.2428,0201,4.11,16.50,17.0000,14.0000
1984-08-29 07:00:00 UTC,2445941.791667,28.7317,-95.2428,0201,4.14,15.45,16.0000,15.0000
1984-08-29 07:30:00 UTC,2445941.812500,28.7317,-95.2428,0201,4.41,15.38,16.0000,16.0000
1984-08-29 08:00:00 UTC,2445941.833333,28.7317,-95.2428,0201,4.94,15.22,16.0000,18.0000
1984-08-29 08:30:00 UTC,2445941.854167,28.7317,-95.2428,0201,4.64,14.27,15.0000,18.0000
1984-08-29 09:00:00 UTC,2445941.875000,28.7317,-95.2428,0201,3.58,12.50,13.0000,16.0000
1984-08-29 09:30:00 UTC,2445941.895833,28.7317,-95.2428,0201,2.29,11.78,12.0000,11.0000
1984-08-29 10:00:00 UTC,2445941.916667,28.7317,-95.2428,0201,1.34,10.92,11.0000,7.0000
1984-08-29 10:30:00 UTC,2445941.937500,28.7317,-95.2428,0201,0.35,9.99,10.0000,2.0000
1984-08-29 11:00:00 UTC,2445941.958333,28.7317,-95.2428,0201,-0.70,9.98,10.0000,356.0000
1984-08-29 11:30:00 UTC,2445941.979167,28.7317,-95.2428,0201,-1.39,9.90,10.0000,352.0000
1984-08-29 12:00:00 UTC,2445942.000000,28.7317,-95.2428,0201,-1.87,8.80,9.0000,348.0000
1984-08-29 12:30:00 UTC,2445942.020833,28.7317,-95.2428,0201,-2.33,8.69,9.0000,345.0000
1984-08-29 13:00:00 UTC,2445942.041667,28.7317,-95.2428,0201,-3.09,9.51,10.0000,342.0000
1984-08-29 13:30:00 UTC,2445942.062500,28.7317,-95.2428,0201,-3.58,10.40,11.0000,341.0000
1984-08-29 14:00:00 UTC,2445942.083333,28.7317,-95.2428,0201,-3.51,11.48,12.0000,343.0000
1984-08-29 14:30:00 UTC,2445942.104167,28.7317,-95.2428,0201,-2.19,13.83,14.0000,351.0000
1984-08-29 15:00:00 UTC,2445942.125000,28.7317,-95.2428,0201,0.00,18.00,18.0000,0.0000
1984-08-29 15:30:00 UTC,2445942.145833,28.7317,-95.2428,0201,2.78,19.81,20.0000,8.0000
1984-08-29 16:00:00 UTC,2445942.166667,28.7317,-95.2428,0201,4.20,21.60,22.0000,11.0000
1984-08-29 16:30:00 UTC,2445942.187500,28.7317,-95.2428,0201,2.51,23.87,24.0000,6.0000
1984-08-29 17:00:00 UTC,2445942.208333,28.7317,-95.2428,0201,0.44,25.00,25.0000,1.0000
1984-08-29 17:30:00 UTC,2445942.229167,28.7317,-95.2428,0201,-0.44,25.00,25.0000,359.0000
1984-08-29 18:00:00 UTC,2445942.250000,28.7317,-95.2428,0201,-0.44,25.00,25.0000,359.0000
1984-08-29 18:30:00 UTC,2445942.270833,28.7317,-95.2428,0201,-0.44,25.00,25.0000,359.0000
1984-08-29 19:00:00 UTC,2445942.291667,28.7317,-95.2428,0201,-0.44,25.00,25.0000,359.0000
1984-08-29 19:30:00 UTC,2445942.312500,28.7317,-95.2428,0201,-0.44,25.00,25.0000,359.0000
1984-08-29 20:00:00 UTC,2445942.333333,28.7317,-95.2428,0201,-0.44,25.00,25.0000,359.0000
1984-08-29 20:30:00 UTC,2445942.354167,28.7317,-95.2428,0201,-0.44,25.00,25.0000,359.0000
1984-08-29 21:00:00 UTC,2445942.375000,28.7317,-95.2428,0201,-0.44,25.00,25.0000,359.0000
1984-08-29 21:30:00 UTC,2445942.395833,28.7317,-95.2428,0201,-0.44,25.00,25.0000,359.0000
1984-08-29 22:00:00 UTC,2445942.416667,28.7317,-95.2428,0201,-0.44,25.00,25.0000,359.0000
1984-08-29 22:30:00 UTC,2445942.437500,28.7317,-95.2428,0201,-0.44,25.00,25.0000,359.0000
1984-08-29 23:00:00 UTC,2445942.458333,28.7317,-95.2428,0201,-0.44,25.00,25.0000,359.0000
1984-08-29 23:30:00 UTC,2445942.479167,28.7317,-95.2428,0201,-0.44,25.00,25.0000,359.0000
1984-08-30 00:00:00 UTC,2445942.500000,28.7317,-95.2428,0201,-0.44,25.00,25.0000,359.0000
1984-08-30 00:30:00 UTC,2445942.520833,28.7317,-95.2428,0201,-0.44,25.00,25.0000,359.0000
1984-08-30 01:00:00 UTC,2445942.541667,28.7317,-95.2428,0201,-0.44,25.00,25.0000,359.0000
1984-08-30 01:30:00 UTC,2445942.562500,28.7317,-95.2428,0201,-0.44,25.00,25.0000,359.0000
1984-08-30 02:00:00 UTC,2445942.583333,28.7317,-95.2428,0201,-0.44,25.00,25.0000,359.0000
1984-08-30 02:30:00 UTC,2445942.604167,28.7317,-95.2428,0201,-0.44,25.00,25.0000,359.0000
1984-08-30 03:00:00 UTC,2445942.625000,28.7317,-95.2428,0201,-0.44,25.00,25.0000,359.0000
1984-08-30 03:30:00 UTC,2445942.645833,28.7317,-95.2428,0201,-0.44,25.00,25.0000,359.0000
1984-08-30 04:00:00 UTC,2445942.666667,28.7317,-95.2428,0201,-0.44,25.00,25.0000,359.0000
1984-08-30 04:30:00 UTC,2445942.687500,28.7317,-95.2428,0201,-0.44,25.00,25.0000,359.0000
1984-08-30 05:00:00 UTC,2445942.708333,28.7317,-95.2428,0201,-0.44,25.00,25.0000,359.0000
1984-08-30 05:30:00 UTC,2445942.729167,28.7317,-95.2428,0201,-0.44,25.00,25.0000,359.0000
1984-08-30 06:00:00 UTC,2445942.750000,28.7317,-95.2428,0201,1.31,24.97,25.0000,3.0000
1984-08-30 06:30:00 UTC,2445942.770833,28.7317,-95.2428,0201,4.57,21.52,22.0000,12.0000
1984-08-30 07:00:00 UTC,2445942.791667,28.7317,-95.2428,0201,6.16,16.91,18.0000,20.0000
1984-08-30 07:30:00 UTC,2445942.812500,28.7317,-95.2428,0201,5.38,14.00,15.0000,21.0000
1984-08-30 08:00:00 UTC,2445942.833333,28.7317,-95.2428,0201,4.45,12.22,13.0000,20.0000
1984-08-30 08:30:00 UTC,2445942.854167,28.7317,-95.2428,0201,4.45,12.22,13.0000,20.0000
1984-08-30 09:00:00 UTC,2445942.875000,28.7317,-95.2428,0201,4.79,13.16,14.0000,20.0000
1984-08-30 09:30:00 UTC,2445942.895833,28.7317,-95.2428,0201,3.80,12.43,13.0000,17.0000
1984-08-30 10:00:00 UTC,2445942.916667,28.7317,-95.2428,0201,2.90,11.64,12.0000,14.0000
1984-08-30 10:30:00 UTC,2445942.937500,28.7317,-95.2428,0201,1.56,8.86,9.0000,10.0000
1984-08-30 11:00:00 UTC,2445942.958333,28.7317,-95.2428,0201,0.28,8.00,8.0000,2.0000
1984-08-30 11:30:00 UTC,2445942.979167,28.7317,-95.2428,0201,-0.56,7.98,8.0000,356.0000
1984-08-30 12:00:00 UTC,2445943.000000,28.7317,-95.2428,0201,-1.11,7.92,8.0000,352.0000
1984-08-30 12:30:00 UTC,2445943.020833,28.7317,-95.2428,0201,-1.57,6.82,7.0000,347.0000
1984-08-30 13:00:00 UTC,2445943.041667,28.7317,-95.2428,0201,-1.93,6.73,7.0000,344.0000
1984-08-30 13:30:00 UTC,2445943.062500,28.7317,-95.2428,0201,-1.93,6.73,7.0000,344.0000
1984-08-30 14:00:00 UTC,2445943.083333,28.7317,-95.2428,0201,-2.07,7.73,8.0000,345.0000
1984-08-30 14:30:00 UTC,2445943.104167,28.7317,-95.2428,0201,-1.94,7.76,8.0000,346.0000
1984-08-30 15:00:00 UTC,2445943.125000,28.7317,-95.2428,0201,-1.66,7.83,8.0000,348.0000
1984-08-30 15:30:00 UTC,2445943.145833,28.7317,-95.2428,0201,-1.80,7.79,8.0000,347.0000
1984-08-30 16:00:00 UTC,2445943.166667,28.7317,-95.2428,0201,-2.18,8.73,9.0000,346.0000
1984-08-30 16:30:00 UTC,2445943.187500,28.7317,-95.2428,0201,-2.42,9.70,10.0000,346.0000
1984-08-30 17:00:00 UTC,2445943.208333,28.7317,-95.2428,0201,-2.29,10.76,11.0000,348.0000
1984-08-30 17:30:00 UTC,2445943.229167,28.7317,-95.2428,0201,-1.67,11.88,12.0000,352.0000
1984-08-30 18:00:00 UTC,2445943.250000,28.7317,-95.2428,0201,-0.91,12.97,13.0000,356.0000
1984-08-30 18:30:00 UTC,2445943.270833,28.7317,-95.2428,0201,0.24,14.00,14.0000,1.0000
1984-08-30 19:00:00 UTC,2445943.291667,28.7317,-95.2428,0201,1.22,13.95,14.0000,5.0000
1984-08-30 19:30:00 UTC,2445943.312500,28.7317,-95.2428,0201,2.09,14.85,15.0000,8.0000
1984-08-30 20:00:00 UTC,2445943.333333,28.7317,-95.2428,0201,2.86,14.72,15.0000,11.0000
1984-08-30 20:30:00 UTC,2445943.354167,28.7317,-95.2428,0201,3.37,14.62,15.0000,13.0000
1984-08-30 21:00:00 UTC,2445943.375000,28.7317,-95.2428,0201,3.88,14.49,15.0000,15.0000
1984-08-30 21:30:00 UTC,2445943.395833,28.7317,-95.2428,0201,3.88,14.49,15.0000,15.0000
1984-08-30 22:00:00 UTC,2445943.416667,28.7317,-95.2428,0201,3.88,14.49,15.0000,15.0000
1984-08-30 22:30:00 UTC,2445943.437500,28.7317,-95.2428,0201,3.86,13.46,14.0000,16.0000
1984-08-30 23:00:00 UTC,2445943.458333,28.7317,-95.2428,0201,3.80,12.43,13.0000,17.0000
1984-08-30 23:30:00 UTC,2445943.479167,28.7317,-95.2428,0201,3.51,11.48,12.0000,17.0000
1984-08-31 00:00:00 UTC,2445943.500000,28.7317,-95.2428,0201,2.85,10.63,11.0000,15.0000
1984-08-31 00:30:00 UTC,2445943.520833,28.7317,-95.2428,0201,2.08,9.78,10.0000,12.0000
1984-08-31 01:00:00 UTC,2445943.541667,28.7317,-95.2428,0201,1.74,9.85,10.0000,10.0000
1984-08-31 01:30:00 UTC,2445943.562500,28.7317,-95.2428,0201,1.72,8.83,9.0000,11.0000
1984-08-31 02:00:00 UTC,2445943.583333,28.7317,-95.2428,0201,1.53,7.85,8.0000,11.0000
1984-08-31 02:30:00 UTC,2445943.604167,28.7317,-95.2428,0201,1.25,7.90,8.0000,9.0000
1984-08-31 03:00:00 UTC,2445943.625000,28.7317,-95.2428,0201,0.97,6.93,7.0000,8.0000
1984-08-31 03:30:00 UTC,2445943.645833,28.7317,-95.2428,0201,0.97,6.93,7.0000,8.0000
1984-08-31 04:00:00 UTC,2445943.666667,28.7317,-95.2428,0201,0.84,5.94,6.0000,8.0000
1984-08-31 04:30:00 UTC,2445943.687500,28.7317,-95.2428,0201,0.73,5.96,6.0000,7.0000
1984-08-31 05:00:00 UTC,2445943.708333,28.7317,-95.2428,0201,0.52,5.98,6.0000,5.0000
1984-08-31 05:30:00 UTC,2445943.729167,28.7317,-95.2428,0201,0.85,6.95,7.0000,7.0000
1984-08-31 06:00:00 UTC,2445943.750000,28.7317,-95.2428,0201,1.53,7.85,8.0000,11.0000
1984-08-31 06:30:00 UTC,2445943.770833,28.7317,-95.2428,0201,1.94,7.76,8.0000,14.0000
1984-08-31 07:00:00 UTC,2445943.791667,28.7317,-95.2428,0201,1.94,7.76,8.0000,14.0000
1984-08-31 07:30:00 UTC,2445943.812500,28.7317,-95.2428,0201,1.66,7.83,8.0000,12.0000
1984-08-31 08:00:00 UTC,2445943.833333,28.7317,-95.2428,0201,1.66,7.83,8.0000,12.0000
1984-08-31 08:30:00 UTC,2445943.854167,28.7317,-95.2428,0201,2.33,8.69,9.0000,15.0000
1984-08-31 09:00:00 UTC,2445943.875000,28.7317,-95.2428,0201,2.78,8.56,9.0000,18.0000
1984-08-31 09:30:00 UTC,2445943.895833,28.7317,-95.2428,0201,2.93,8.51,9.0000,19.0000
1984-08-31 10:00:00 UTC,2445943.916667,28.7317,-95.2428,0201,2.07,7.73,8.0000,15.0000
1984-08-31 10:30:00 UTC,2445943.937500,28.7317,-95.2428,0201,1.53,7.85,8.0000,11.0000
1984-08-31 11:00:00 UTC,2445943.958333,28.7317,-95.2428,0201,0.73,6.96,7.0000,6.0000
1984-08-31 11:30:00 UTC,2445943.979167,28.7317,-95.2428,0201,0.00,7.00,7.0000,0.0000
1984-08-31 12:00:00 UTC,2445944.000000,28.7317,-95.2428,0201,-0.52,4.97,5.0000,354.0000
1984-08-31 12:30:00 UTC,2445944.020833,28.7317,-95.2428,0201,-0.45,1.95,2.0000,347.0000
1984-08-31 13:00:00 UTC,2445944.041667,28.7317,-95.2428,0201,-0.00,0.00,0.0000,317.0000
1984-08-31 13:30:00 UTC,2445944.062500,28.7317,-95.2428,0201,-0.00,-0.00,0.0000,260.0000
1984-08-31 14:00:00 UTC,2445944.083333,28.7317,-95.2428,0201,-0.00,-0.00,0.0000,270.0000
1984-08-31 14:30:00 UTC,2445944.104167,28.7317,-95.2428,0201,-0.00,0.00,0.0000,275.0000
1984-08-31 15:00:00 UTC,2445944.125000,28.7317,-95.2428,0201,-0.00,0.00,0.0000,272.0000
1984-08-31 15:30:00 UTC,2445944.145833,28.7317,-95.2428,0201,-0.85,-0.53,1.0000,238.0000
1984-08-31 16:00:00 UTC,2445944.166667,28.7317,-95.2428,0201,-0.85,-1.81,2.0000,205.0000
1984-08-31 16:30:00 UTC,2445944.187500,28.7317,-95.2428,0201,-1.29,-4.83,5.0000,195.0000
1984-08-31 17:00:00 UTC,2445944.208333,28.7317,-95.2428,0201,-1.85,-5.71,6.0000,198.0000
1984-08-31 17:30:00 UTC,2445944.229167,28.7317,-95.2428,0201,-3.18,-5.09,6.0000,212.0000
1984-08-31 18:00:00 UTC,2445944.250000,28.7317,-95.2428,0201,-4.85,-3.53,6.0000,234.0000
1984-08-31 18:30:00 UTC,2445944.270833,28.7317,-95.2428,0201,-4.78,-1.46,5.0000,253.0000
1984-08-31 19:00:00 UTC,2445944.291667,28.7317,-95.2428,0201,-3.88,-0.97,4.0000,256.0000
1984-08-31 19:30:00 UTC,2445944.312500,28.7317,-95.2428,0201,-3.80,-1.24,4.0000,252.0000
1984-08-31 20:00:00 UTC,2445944.333333,28.7317,-95.2428,0201,-4.92,-0.87,5.0000,260.0000
1984-08-31 20:30:00 UTC,2445944.354167,28.7317,-95.2428,0201,-4.98,-0.44,5.0000,265.0000
1984-08-31 21:00:00 UTC,2445944.375000,28.7317,-95.2428,0201,-4.97,-0.52,5.0000,264.0000
1984-08-31 21:30:00 UTC,2445944.395833,28.7317,-95.2428,0201,-4.91,-0.95,5.0000,259.0000
1984-08-31 22:00:00 UTC,2445944.416667,28.7317,-95.2428,0201,-3.65,-1.63,4.0000,246.0000
1984-08-31 22:30:00 UTC,2445944.437500,28.7317,-95.2428,0201,-3.94,-3.08,5.0000,232.0000
1984-08-31 23:00:00 UTC,2445944.458333,28.7317,-95.2428,0201,-3.21,-3.83,5.0000,220.0000
1984-08-31 23:30:00 UTC,2445944.479167,28.7317,-95.2428,0201,-2.82,-5.30,6.0000,208.0000
1984-09-01 00:00:00 UTC,2445944.500000,28.7317,-95.2428,0201,-2.85,-6.39,7.0000,204.0000
1984-09-01 00:30:00 UTC,2445944.520833,28.7317,-95.2428,0201,-3.80,-8.16,9.0000,205.0000
1984-09-01 01:00:00 UTC,2445944.541667,28.7317,-95.2428,0201,-4.65,-9.97,11.0000,205.0000
1984-09-01 01:30:00 UTC,2445944.562500,28.7317,-95.2428,0201,-5.90,-11.58,13.0000,207.0000
1984-09-01 02:00:00 UTC,2445944.583333,28.7317,-95.2428,0201,-7.50,-12.99,15.0000,210.0000
1984-09-01 02:30:00 UTC,2445944.604167,28.7317,-95.2428,0201,-8.24,-14.87,17.0000,209.0000
1984-09-01 03:00:00 UTC,2445944.625000,28.7317,-95.2428,0201,-8.17,-16.04,18.0000,207.0000
1984-09-01 03:30:00 UTC,2445944.645833,28.7317,-95.2428,0201,-8.03,-17.22,19.0000,205.0000
1984-09-01 04:00:00 UTC,2445944.666667,28.7317,-95.2428,0201,-8.13,-18.27,20.0000,204.0000
1984-09-01 04:30:00 UTC,2445944.687500,28.7317,-95.2428,0201,-7.53,-19.61,21.0000,201.0000
1984-09-01 05:00:00 UTC,2445944.708333,28.7317,-95.2428,0201,-6.49,-19.97,21.0000,198.0000
1984-09-01 05:30:00 UTC,2445944.729167,28.7317,-95.2428,0201,-5.44,-20.28,21.0000,195.0000
1984-09-01 06:00:00 UTC,2445944.750000,28.7317,-95.2428,0201,-5.44,-20.28,21.0000,195.0000
1984-09-01 06:30:00 UTC,2445944.770833,28.7317,-95.2428,0201,-5.44,-20.28,21.0000,195.0000
1984-09-01 07:00:00 UTC,2445944.791667,28.7317,-95.2428,0201,-4.37,-20.54,21.0000,192.0000
1984-09-01 07:30:00 UTC,2445944.812500,28.7317,-95.2428,0201,-3.82,-21.67,22.0000,190.0000
1984-09-01 08:00:00 UTC,2445944.833333,28.7317,-95.2428,0201,-3.06,-21.79,22.0000,188.0000
1984-09-01 08:30:00 UTC,2445944.854167,28.7317,-95.2428,0201,-2.56,-20.84,21.0000,187.0000
1984-09-01 09:00:00 UTC,2445944.875000,28.7317,-95.2428,0201,-1.66,-18.93,19.0000,185.0000
1984-09-01 09:30:00 UTC,2445944.895833,28.7317,-95.2428,0201,-2.09,-19.89,20.0000,186.0000
1984-09-01 10:00:00 UTC,2445944.916667,28.7317,-95.2428,0201,-3.13,-19.75,20.0000,189.0000
1984-09-01 10:30:00 UTC,2445944.937500,28.7317,-95.2428,0201,-2.78,-19.81,20.0000,188.0000
1984-09-01 11:00:00 UTC,2445944.958333,28.7317,-95.2428,0201,-2.20,-20.88,21.0000,186.0000
1984-09-01 11:30:00 UTC,2445944.979167,28.7317,-95.2428,0201,-1.92,-21.92,22.0000,185.0000
1984-09-01 12:00:00 UTC,2445945.000000,28.7317,-95.2428,0201,-2.00,-22.91,23.0000,185.0000
1984-09-01 12:30:00 UTC,2445945.020833,28.7317,-95.2428,0201,-2.40,-22.87,23.0000,186.0000
1984-09-01 13:00:00 UTC,2445945.041667,28.7317,-95.2428,0201,-2.51,-23.87,24.0000,186.0000
1984-09-01 13:30:00 UTC,2445945.062500,28.7317,-95.2428,0201,-3.05,-24.81,25.0000,187.0000
1984-09-01 14:00:00 UTC,2445945.083333,28.7317,-95.2428,0201,-4.77,-24.54,25.0000,191.0000
1984-09-01 14:30:00 UTC,2445945.104167,28.7317,-95.2428,0201,-5.40,-23.38,24.0000,193.0000
1984-09-01 15:00:00 UTC,2445945.125000,28.7317,-95.2428,0201,-5.81,-23.29,24.0000,194.0000
1984-09-01 15:30:00 UTC,2445945.145833,28.7317,-95.2428,0201,-5.81,-23.29,24.0000,194.0000
1984-09-01 16:00:00 UTC,2445945.166667,28.7317,-95.2428,0201,-5.17,-22.41,23.0000,193.0000
1984-09-01 16:30:00 UTC,2445945.187500,28.7317,-95.2428,0201,-4.17,-23.64,24.0000,190.0000
1984-09-01 17:00:00 UTC,2445945.208333,28.7317,-95.2428,0201,-4.17,-23.64,24.0000,190.0000
1984-09-01 17:30:00 UTC,2445945.229167,28.7317,-95.2428,0201,-4.58,-23.56,24.0000,191.0000
1984-09-01 18:00:00 UTC,2445945.250000,28.7317,-95.2428,0201,-4.58,-23.56,24.0000,191.0000
1984-09-01 18:30:00 UTC,2445945.270833,28.7317,-95.2428,0201,-4.34,-24.62,25.0000,190.0000
1984-09-01 19:00:00 UTC,2445945.291667,28.7317,-95.2428,0201,-3.91,-24.69,25.0000,189.0000
1984-09-01 19:30:00 UTC,2445945.312500,28.7317,-95.2428,0201,-3.17,-25.81,26.0000,187.0000
1984-09-01 20:00:00 UTC,2445945.333333,28.7317,-95.2428,0201,-0.87,-24.98,25.0000,182.0000
1984-09-01 20:30:00 UTC,2445945.354167,28.7317,-95.2428,0201,1.31,-24.97,25.0000,177.0000
1984-09-01 21:00:00 UTC,2445945.375000,28.7317,-95.2428,0201,1.81,-25.94,26.0000,176.0000
1984-09-01 21:30:00 UTC,2445945.395833,28.7317,-95.2428,0201,0.47,-27.00,27.0000,179.0000
1984-09-01 22:00:00 UTC,2445945.416667,28.7317,-95.2428,0201,-1.41,-26.96,27.0000,183.0000
1984-09-01 22:30:00 UTC,2445945.437500,28.7317,-95.2428,0201,-1.88,-26.93,27.0000,184.0000
1984-09-01 23:00:00 UTC,2445945.458333,28.7317,-95.2428,0201,-1.47,-27.96,28.0000,183.0000
1984-09-01 23:30:00 UTC,2445945.479167,28.7317,-95.2428,0201,-0.51,-29.00,29.0000,181.0000
1984-09-02 00:00:00 UTC,2445945.500000,28.7317,-95.2428,0201,-0.51,-29.00,29.0000,181.0000
1984-09-02 00:30:00 UTC,2445945.520833,28.7317,-95.2428,0201,-1.95,-27.93,28.0000,184.0000
1984-09-02 01:00:00 UTC,2445945.541667,28.7317,-95.2428,0201,-1.88,-26.93,27.0000,184.0000
1984-09-02 01:30:00 UTC,2445945.562500,28.7317,-95.2428,0201,-0.47,-27.00,27.0000,181.0000
1984-09-02 02:00:00 UTC,2445945.583333,28.7317,-95.2428,0201,-0.49,-28.00,28.0000,181.0000
1984-09-02 02:30:00 UTC,2445945.604167,28.7317,-95.2428,0201,-1.01,-28.98,29.0000,182.0000
1984-09-02 03:00:00 UTC,2445945.625000,28.7317,-95.2428,0201,-0.51,-29.00,29.0000,181.0000
1984-09-02 03:30:00 UTC,2445945.645833,28.7317,-95.2428,0201,0.00,-29.00,29.0000,180.0000
1984-09-02 04:00:00 UTC,2445945.666667,28.7317,-95.2428,0201,-1.41,-26.96,27.0000,183.0000
1984-09-02 04:30:00 UTC,2445945.687500,28.7317,-95.2428,0201,-2.09,-23.91,24.0000,185.0000
1984-09-02 05:00:00 UTC,2445945.708333,28.7317,-95.2428,0201,-1.67,-23.94,24.0000,184.0000
1984-09-02 05:30:00 UTC,2445945.729167,28.7317,-95.2428,0201,-2.09,-23.91,24.0000,185.0000
1984-09-02 06:00:00 UTC,2445945.750000,28.7317,-95.2428,0201,-3.91,-24.69,25.0000,189.0000
1984-09-02 06:30:00 UTC,2445945.770833,28.7317,-95.2428,0201,-6.89,-24.03,25.0000,196.0000
1984-09-02 07:00:00 UTC,2445945.791667,28.7317,-95.2428,0201,-8.96,-23.34,25.0000,201.0000